map of EDI home
EDI - Airport
Location
City:  Edinburgh, Midlothian, Scotland, United Kingdom
Name:Edinburgh Airport
Old (Alt.):RAF Turnhouse
ICAO:EGPH
IATA:EDI

Details
Type:Airport (Aerodrome, Airfield)
Use:Public/Civil, International (customs port of entry)
Latitude:5557'00"N (55.950000)
Longitude:322'21"W (-3.372499)
Elevation:136 ft (41 m)
Variation:2.23W (WMM2015 magnetic declination)
0.17 annual change
Runways:2
Longest:8386 × 151 ft (2556 × 46 m), paved

Time
Time Zone:UTC+0 (DST+1)
Local Time:

Weather
METAR:EGPH 210620Z 05003KT CAVOK 13/08 Q1018
TAF:EGPH 210507Z 2106/2206 05009KT 9999 FEW045 PROB40
TEMPO 2122/2206 6000 -RADZ BKN008

Related Locations
Nearby:
Farthest:SZS: 11707 mi / 18841 km
Ryan's Creek, Stewart Island, STL, NZ

Find:

   beyond  
but within

Other Information
Maps:
NOTAMs:
Links:
Sources:

  
flag of United Kingdom
flag of Scotland
flag of Edinburgh
  

Airport Diagram

Airport diagram for EDI

Airport diagram PDF

Sectional Chart

Flight Planning
at skyvector.com

Satellite Image

Google Maps Satellite view

 

Copyright © 2004-2018 Karl L. Swartz. All rights reserved.
The Great Circle Mapper name and logo are trademarks of the Great Circle Mapper.
All other trademarks mentioned herein belong to their respective owners.
Please see credits for attibutions and further copyright information.

  Follow gcmap on Facebook Follow gcmap on Twitter Follow gcmap on Google+ GCmap on LinkedIn

hCard Microformat

Geo Microformat